TimeMDT,TemperatureF,Dew PointF,Humidity,Sea Level PressureIn,VisibilityMPH,Wind Direction,Wind SpeedMPH,Gust SpeedMPH,PrecipitationIn,Events,Conditions,WindDirDegrees,DateUTC
12:51 AM,43.0,34.0,71,30.12,10.0,Calm,Calm,-,N/A,,Clear,0,2013-06-15 06:51:00
1:51 AM,39.0,32.0,76,30.10,10.0,Calm,Calm,-,N/A,,Clear,0,2013-06-15 07:51:00
2:51 AM,37.9,32.0,79,30.10,10.0,Calm,Calm,-,N/A,,Clear,0,2013-06-15 08:51:00
3:51 AM,35.1,30.9,85,30.09,10.0,Calm,Calm,-,N/A,,Clear,0,2013-06-15 09:51:00
4:51 AM,34.0,30.0,85,30.09,10.0,Calm,Calm,-,N/A,,Clear,0,2013-06-15 10:51:00
5:51 AM,33.1,28.9,85,30.09,10.0,Calm,Calm,-,N/A,,Clear,0,2013-06-15 11:51:00
6:51 AM,34.0,30.9,89,30.09,10.0,Calm,Calm,-,N/A,,Clear,0,2013-06-15 12:51:00
7:51 AM,39.0,33.1,79,30.08,10.0,Calm,Calm,-,N/A,,Clear,0,2013-06-15 13:51:00
8:51 AM,45.0,35.1,68,30.06,10.0,Calm,Calm,-,N/A,,Clear,0,2013-06-15 14:51:00
9:51 AM,51.1,35.1,54,30.07,10.0,Calm,Calm,-,N/A,,Clear,0,2013-06-15 15:51:00
10:51 AM,55.9,34.0,44,30.05,10.0,Calm,Calm,-,N/A,,Clear,0,2013-06-15 16:51:00
11:51 AM,61.0,28.9,30,30.03,10.0,Calm,Calm,-,N/A,,Clear,0,2013-06-15 17:51:00
12:51 PM,63.0,24.1,23,30.03,10.0,Calm,Calm,-,N/A,,Clear,0,2013-06-15 18:51:00
1:51 PM,66.0,23.0,20,30.02,10.0,Calm,Calm,-,N/A,,Clear,0,2013-06-15 19:51:00
2:51 PM,66.9,23.0,19,30.01,10.0,SSE,8.1,-,N/A,,Clear,160,2013-06-15 20:51:00
3:51 PM,68.0,24.1,19,30.00,10.0,Variable,3.5,-,N/A,,Clear,0,2013-06-15 21:51:00
4:51 PM,70.0,23.0,17,29.99,10.0,Calm,Calm,-,N/A,,Clear,0,2013-06-15 22:51:00
5:51 PM,70.0,23.0,17,29.98,10.0,Variable,3.5,-,N/A,,Clear,0,2013-06-15 23:51:00
6:51 PM,70.0,21.9,16,29.98,10.0,West,5.8,-,N/A,,Clear,260,2013-06-16 00:51:00
7:51 PM,69.1,23.0,18,29.97,10.0,NNW,4.6,-,N/A,,Clear,330,2013-06-16 01:51:00
8:51 PM,66.9,25.0,21,29.96,10.0,West,3.5,-,N/A,,Clear,280,2013-06-16 02:51:00
9:51 PM,57.0,34.0,42,29.98,10.0,NE,3.5,-,N/A,,Clear,40,2013-06-16 03:51:00
10:51 PM,55.0,34.0,45,29.99,10.0,Calm,Calm,-,N/A,,Clear,0,2013-06-16 04:51:00
11:51 PM,55.0,34.0,45,29.98,10.0,North,5.8,-,N/A,,Clear,10,2013-06-16 05:51:00